Location: Essex Fells
(40.8245°N, 74.2846°W)
Time: 04:47:47
(UTC+00:00)

Daily predictions for brighter satellites

Satellite Brightness Start Highest point End
(mag) Time Altitude Azimuth Time Altitude Azimuth Time Altitude Azimuth
Hubble Space Telescope 3.5 00:09:15 10° SW 00:10:04 12° SSW 00:10:04 12° SSW
USA 215 4.2 00:13:56 31° N 00:13:56 31° N 00:18:46 10° NW
Cosmos 2263 Rocket 3.2 00:13:32 10° NW 00:18:45 42° WSW 00:22:51 16° S
NOSS 3-2 (C) 4.5 00:23:06 10° NNW 00:28:40 46° N 00:28:40 46° N
ISS -0.1 00:27:43 10° W 00:27:44 10° W 00:27:44 10° W
CENTAUR R/B 4.0 00:55:31 10° NNW 01:00:15 39° NNW 01:00:15 39° NNW
ATLAS 2AS CENTAUR R/B 4.0 01:14:58 10° SW 01:19:52 40° WSW 01:19:52 40° WSW
COSMOS 2455 4.2 08:31:10 34° ESE 08:31:10 34° ESE 08:34:49 10° SE
Cosmos 2360 Rocket 4.2 08:41:23 19° NNE 08:43:17 23° NE 08:47:40 10° ESE
SL-16 R/B 3.0 08:53:22 48° ESE 08:53:22 48° ESE 08:57:48 10° SE
ATLAS 2AS CENTAUR R/B 3.1 08:55:47 56° N 08:57:07 65° NE 09:04:03 10° SE
Cosmos 2322 Rocket 2.8 08:57:45 53° ENE 08:57:45 53° ENE 09:03:02 10° SE
Cosmos 2173 Rocket 4.3 09:00:32 10° S 09:06:40 62° E 09:12:44 10° NNE
CZ-2C R/B 4.0 09:02:17 10° NNE 09:04:33 27° NE 09:04:33 27° NE
CZ-3B R/B 3.7 09:20:44 24° SSW 09:22:32 26° S 09:27:22 10° SE
Cosmos 2061 Rocket 4.3 09:21:32 10° S 09:27:40 65° E 09:33:48 10° NNE
Cosmos 1408 Rocket 4.0 09:23:52 10° S 09:28:05 58° E 09:32:22 10° NNE
PAYLOAD A 4.4 09:24:39 10° N 09:28:50 53° N 09:28:50 53° N
Cosmos 372 Rocket 3.8 09:30:17 87° NNE 09:30:17 87° NNE 09:35:20 10° NNE
Cosmos 2219 Rocket 4.5 09:27:09 10° N 09:31:09 19° NE 09:35:08 10° E
Lacrosse 5 rocket 3.4 09:32:13 17° NNE 09:32:13 17° NNE 09:34:24 10° ENE
Cosmos 2150 Rocket 3.9 09:37:43 65° SW 09:38:26 76° WNW 09:43:51 10° NNE
Cosmos 1484 Rocket 4.0 09:37:59 10° NNE 09:41:51 44° E 09:45:39 10° S
Cosmos 1459 Rocket 3.9 09:37:21 10° SSW 09:43:31 69° W 09:49:50 10° N
Meteor 2-20 Rocket 4.4 09:43:27 46° NW 09:44:54 56° W 09:50:53 10° S
Cosmos 2333 Rocket 4.2 09:40:20 10° N 09:45:05 25° NE 09:49:48 10° ESE
Meteor PRIRODA 3.9 09:42:56 10° NNE 09:46:34 64° ESE 09:50:10 10° S
BREEZE-M DEB (TANK) 3.8 09:40:52 30° WNW 09:46:38 76° NNE 09:50:40 10° ESE
BREEZE-M DEB (TANK) 3.2 09:51:53 45° NE 09:51:53 45° NE 09:54:03 10° E
ALOS 3.8 09:49:30 10° NNE 09:53:51 37° E 09:58:10 10° SSE
SL-4 R/B 2.3 09:53:54 59° WSW 09:54:26 65° SW 09:59:12 10° SE
ATLAS CENTAUR R/B 3.0 09:57:01 26° NNW 09:57:01 26° NNW 09:59:47 10° NNE
Abrixas rocket 4.4 09:56:58 17° NNE 09:56:58 17° NNE 09:58:04 10° NE
COBE Rocket 3.8 09:53:28 10° S 09:58:35 78° W 10:03:14 12° NNW
Cosmos 2016 Rocket 3.9 09:53:32 10° SSW 09:59:47 75° W 10:06:10 10° N
Cosmos 1725 Rocket 4.0 09:55:00 10° S 10:01:16 89° E 10:07:37 10° N
COSMO-SKYMED 1 2.9 09:57:58 10° SSE 10:02:15 64° ENE 10:06:34 10° N
NOSS 3-4 (A) 3.9 10:03:54 26° NW 10:08:17 66° WSW 10:16:00 10° SSE
NOSS 3-4 (C) 3.9 10:03:58 25° NW 10:08:23 66° WSW 10:16:06 10° SSE
Cosmos 1238 Rocket 4.2 10:03:51 10° S 10:10:17 71° E 10:15:59 10° NNE
Cosmos 1400 Rocket 3.5 10:06:50 10° N 10:10:48 54° ENE 10:14:41 10° SSE
Cosmos 1048 Rocket 3.9 10:08:20 17° NNW 10:12:31 76° WSW 10:17:47 10° SSE
COSMOS 2455 3.7 10:14:23 27° WSW 10:14:39 28° WSW 10:19:36 10° SSW
PAYLOAD B 4.5 10:13:08 10° NNE 10:18:39 72° ESE 10:24:07 10° S
CZ-4B DEB 4.3 10:13:48 10° NNE 10:19:19 83° ESE 10:24:49 10° SSW
MOS 1-B 4.3 10:15:03 10° NNE 10:20:52 85° WNW 10:26:39 10° SSW
Cosmos 1816 Rocket 4.4 10:17:32 10° N 10:23:49 73° W 10:29:59 10° S
Cosmos 1151 Rocket 3.5 10:22:36 29° NW 10:23:56 37° W 10:27:53 10° SSW
Lacrosse 5 4.0 10:22:34 11° NNW 10:24:28 12° N 10:26:36 10° NNE
Cosmos 2237 4.2 10:21:13 15° NNW 10:25:52 62° WSW 10:31:27 10° S
SKYMED 3 4.5 10:22:02 10° S 10:26:21 69° W 10:30:41 10° NNW
Meteor 1-26 Rocket 4.2 10:21:31 10° N 10:27:11 84° E 10:32:41 10° S
Cosmos 2360 Rocket 2.3 10:23:12 16° NW 10:27:39 57° WSW 10:33:10 10° S
Cosmos 1818 4.0 10:28:18 10° SSW 10:33:40 67° ESE 10:39:05 10° NE
Cosmos 2237 Rocket 4.3 10:29:53 10° N 10:34:21 23° NE 10:38:47 10° ESE
Tsikada Rocket 4.0 10:28:48 10° NNW 10:35:05 63° W 10:41:16 10° S
Helios 1A Rocket 2.9 10:31:27 10° NNE 10:35:33 82° ESE 10:39:35 10° SSW
PSLV R/B 4.3 10:32:05 10° N 10:35:45 38° WNW 10:39:29 10° SW
SL-16 R/B 3.4 10:35:19 20° W 10:35:49 20° W 10:39:46 10° SW
Cosmos 1833 4.5 10:30:40 10° SW 10:35:58 43° WNW 10:41:19 10° N
COSMOS 2428 3.3 10:31:38 10° NNW 10:37:17 58° ENE 10:42:55 10° SE
METEOR-M 4.0 10:32:49 10° N 10:38:11 80° WNW 10:43:31 10° SSW
Cosmos 2322 Rocket 3.4 10:39:39 19° W 10:41:05 21° W 10:45:12 10° SSW
FALCON 9 DEB 4.4 10:39:17 10° SSW 10:41:24 27° SE 10:43:31 10° ENE
CZ-2C R/B 3.9 10:41:45 10° NNW 10:43:55 16° NW 10:43:55 16° NW
Cosmos 1825 3.5 10:45:54 19° WNW 10:45:54 19° WNW 10:48:03 10° NNW
Cosmos 494 Rocket 3.9 10:40:15 10° NNW 10:45:28 71° WSW 10:50:38 10° S
Cosmos 1606 3.1 10:41:58 10° NNW 10:45:33 40° W 10:49:09 10° SSW
Starlink Launch 2 leader 4.0 10:44:29 10° SSW 10:46:44 33° SE 10:49:00 10° ENE
ATLAS 2AS CENTAUR R/B 3.7 10:43:17 16° WNW 10:47:25 27° WSW 10:52:58 10° SSW
STARLINK 1050 4.3 10:45:37 10° SSW 10:48:14 35° SE 10:50:53 10° ENE
STARLINK 1055 4.2 10:46:43 10° SSW 10:49:20 36° SE 10:51:59 10° ENE
Cosmos 1515 Rocket 4.4 10:45:55 10° NNW 10:49:40 29° W 10:53:24 10° SSW
FALCON 9 DEB 3.9 10:47:49 10° SSW 10:50:04 35° SE 10:52:20 10° ENE
Starlink Launch 2 trailer 3.8 10:48:06 10° SSW 10:50:24 37° SE 10:52:43 10° ENE
STARLINK 1022 4.1 10:47:49 10° SSW 10:50:26 37° SE 10:53:05 10° ENE
SKYMED 2 4.1 10:46:27 10° SSW 10:50:27 36° W 10:54:29 10° NNW
STARLINK 1042 4.1 10:48:34 10° SSW 10:51:15 39° SE 10:53:56 10° ENE
Cosmos 1805 Rocket 3.5 10:47:00 10° S 10:51:20 86° W 10:55:41 10° N
Okean O Rocket 1.5 10:47:15 10° N 10:51:34 66° WNW 10:55:53 10° SSW
STARLINK 1056 4.0 10:49:49 10° SSW 10:52:29 40° SE 10:55:10 10° ENE
Cosmos 1743 Rocket 4.2 10:48:50 10° SW 10:52:40 31° WNW 10:56:32 10° NNW
FALCON 9 DEB 3.7 10:50:37 10° SSW 10:52:55 39° SE 10:55:14 10° ENE
Cosmos 2228 Rocket 3.5 10:48:53 10° NNW 10:53:14 44° W 10:57:34 10° SSW
FENGYUN 3A 3.7 10:48:08 10° N 10:53:29 62° WNW 10:58:46 10° SSW
STARLINK 1054 3.9 10:50:59 10° SSW 10:53:39 41° SE 10:56:22 10° ENE
STARLINK 1062 3.9 10:51:53 10° SSW 10:54:35 42° SE 10:57:17 10° ENE
STARLINK 1053 3.8 10:53:29 10° SSW 10:56:13 44° SE 10:58:55 10° ENE
SJ-7 4.4 10:52:26 10° NNE 10:56:36 90° WSW 11:00:39 10° SSW
STARLINK 1061 3.8 10:54:03 10° SSW 10:56:48 45° SE 10:59:35 10° ENE
STARLINK 1067 3.7 10:55:17 10° SSW 10:58:01 47° SE 11:00:46 10° ENE
STARLINK-46 3.0 10:56:04 17° WNW 10:58:06 52° SW 11:00:59 10° SE
STARLINK 1058 3.6 10:56:17 10° SSW 10:59:02 48° SE 11:01:48 10° ENE
STARLINK 1043 3.6 10:57:24 10° SW 11:00:11 50° SE 11:02:59 10° ENE
STARLINK 1065 3.5 10:58:25 10° SW 11:01:12 51° SE 11:03:57 10° ENE
Cosmos 1269 Rocket 4.1 10:56:42 10° NNW 11:01:55 60° WSW 11:07:06 10° S
STARLINK 1063 3.4 10:59:47 10° SW 11:02:34 54° SE 11:05:21 10° ENE
STARLINK 1027 3.4 11:00:11 10° SW 11:02:59 54° SE 11:05:48 10° ENE
STARLINK 1028 3.4 11:00:24 10° SW 11:03:12 55° SE 11:06:00 10° ENE
STARLINK 1021 3.4 11:00:35 10° SW 11:03:23 55° SE 11:06:11 10° ENE
STARLINK 1064 3.4 11:00:41 10° SW 11:03:28 55° SE 11:06:16 10° ENE
STARLINK 1019 3.4 11:00:47 10° SW 11:03:35 56° SE 11:06:25 10° ENE
STARLINK 1012 3.3 11:00:59 10° SW 11:03:48 56° SE 11:06:37 10° ENE
STARLINK 1010 3.3 11:01:12 10° SW 11:04:00 56° SE 11:06:49 10° ENE
STARLINK 1026 3.3 11:01:25 10° SW 11:04:13 57° SE 11:07:03 10° ENE
STARLINK 1013 3.3 11:01:38 10° SW 11:04:26 57° SE 11:07:15 10° ENE
STARLINK 1041 3.3 11:01:49 10° SW 11:04:36 57° SE 11:07:25 10° ENE
STARLINK 1009 3.3 11:01:48 10° SW 11:04:37 57° SE 11:07:26 10° ENE
STARLINK 1015 3.3 11:02:00 10° SW 11:04:49 58° SE 11:07:39 10° ENE
Cosmos 2233 Rocket 4.3 10:58:56 10° SSW 11:04:55 46° WNW 11:10:59 10° N
STARLINK 1016 3.3 11:02:13 10° SW 11:05:02 58° SE 11:07:52 10° ENE
STARLINK 1034 3.2 11:02:16 10° SW 11:05:02 58° SE 11:07:49 10° ENE
STARLINK 1008 3.3 11:02:24 10° SW 11:05:13 58° SE 11:08:04 10° ENE
STARLINK 1014 3.3 11:02:36 10° SW 11:05:25 59° SE 11:08:15 10° ENE
STARLINK 1025 3.2 11:02:49 10° SW 11:05:38 59° SE 11:08:28 10° ENE
STARLINK 1045 3.2 11:02:58 10° SW 11:05:46 59° SE 11:08:36 10° ENE
STARLINK 1038 3.2 11:02:59 10° SW 11:05:46 59° SE 11:08:36 10° ENE
STARLINK 1017 3.2 11:03:02 10° SW 11:05:51 59° SE 11:08:41 10° ENE
STARLINK 1023 3.2 11:03:13 10° SW 11:06:02 60° SE 11:08:53 10° ENE
STARLINK 1007 3.2 11:03:27 10° SW 11:06:15 60° SE 11:09:05 10° ENE
STARLINK 1048 3.2 11:03:38 10° SW 11:06:28 61° SE 11:09:18 10° ENE
RESURS DK-1 3.2 11:02:29 10° NNW 11:06:32 50° ENE 11:10:33 10° SE
STARLINK 1049 3.2 11:03:47 10° SW 11:06:36 61° SE 11:09:27 10° ENE
STARLINK 1051 3.2 11:04:00 10° SW 11:06:49 61° SE 11:09:40 10° ENE
STARLINK 1046 3.2 11:04:07 10° SW 11:06:55 61° SE 11:09:44 10° ENE
STARLINK 1068 3.2 11:04:07 10° SW 11:06:56 61° SE 11:09:47 10° ENE
STARLINK 1037 3.2 11:04:13 10° SW 11:07:03 62° SE 11:09:53 10° ENE
STARLINK 1059 3.2 11:04:26 10° SW 11:07:16 62° SE 11:10:06 10° ENE
STARLINK 1057 3.1 11:04:39 10° SW 11:07:29 62° SE 11:10:19 10° ENE
STARLINK 1052 3.1 11:04:52 10° SW 11:07:42 63° SE 11:10:32 10° ENE
STARLINK 1039 3.1 11:05:10 10° SW 11:07:59 63° SE 11:10:48 10° ENE
STARLINK 1029 3.1 11:05:15 10° SW 11:08:05 63° SE 11:10:56 10° ENE
STARLINK 1060 3.1 11:05:24 10° SW 11:08:14 64° SE 11:11:05 10° ENE
STARLINK 1030 3.1 11:05:38 10° SW 11:08:29 64° SE 11:11:21 10° ENE
STARLINK 1020 3.1 11:05:51 10° SW 11:08:41 65° SE 11:11:32 10° ENE
STARLINK 1033 3.0 11:06:29 10° SW 11:09:20 66° SE 11:12:12 10° NE
STARLINK 1031 3.0 11:06:43 10° SW 11:09:33 66° SE 11:12:24 10° NE
STARLINK 1024 3.0 11:06:55 10° SW 11:09:46 67° SE 11:12:40 10° NE
STARLINK 1035 3.0 11:07:05 10° SW 11:09:56 67° SE 11:12:49 10° NE
STARLINK 1032 3.0 11:07:15 10° SW 11:10:06 67° SE 11:12:58 10° NE
STARLINK 1011 3.0 11:07:31 10° SW 11:10:23 68° SE 11:13:16 10° NE
STARLINK 1036 3.0 11:07:43 10° SW 11:10:33 68° SE 11:13:26 10° NE
STARLINK 1047 3.0 11:08:09 10° SW 11:11:00 69° SE 11:13:52 10° NE
Cosmos 2333 4.5 11:05:33 10° NNW 11:11:08 51° WSW 11:16:41 10° S
Lacrosse 5 rocket 1.0 11:07:56 10° NW 11:11:31 71° SW 11:15:05 10° SE
Cosmos 1633 2.5 11:10:21 10° S 11:13:57 78° W 11:17:36 10° N
Timation 2 Rocket 4.1 11:08:32 10° SW 11:14:21 48° WNW 11:20:08 10° NNE
Radarsat Rocket 4.0 11:09:18 10° NNE 11:15:08 80° WNW 11:21:17 10° SSW
Cosmos 2251 Rocket 4.4 11:10:21 10° N 11:15:29 50° ENE 11:20:33 10° SE
Cosmos 1633 Rocket 3.4 11:11:19 10° S 11:15:37 73° E 11:19:59 10° NNE
Cosmos 2219 Rocket 2.2 11:10:01 10° NNW 11:15:40 70° WSW 11:21:17 10° SSE
Cosmos 1484 Rocket 4.5 11:13:36 10° NNW 11:15:52 15° WNW 11:18:07 10° W
Cosmos 1315 Rocket 2.9 11:12:33 10° NNW 11:16:34 64° W 11:20:37 10° S
Sich 1 3.0 11:12:37 10° SSW 11:16:50 62° W 11:21:06 10° N
Cosmos 2322 4.3 11:12:26 10° NW 11:17:36 37° WSW 11:22:43 10° S
Meteor 2-3 Rocket 4.4 11:12:35 10° SW 11:17:42 33° WNW 11:22:53 10° N
BREEZE-M DEB 3.8 11:10:00 10° WNW 11:18:38 87° SSW 11:22:32 10° ESE
CZ-4B R/B 3.5 11:14:07 10° N 11:19:17 46° WNW 11:24:31 10° SW
Cosmos 2219 3.5 11:14:25 10° SSW 11:20:04 76° ESE 11:25:43 10° NNE
CZ-3B R/B 3.7 11:19:12 10° SW 11:22:19 14° SSW 11:24:42 10° S
H-2A R/B 2.6 11:21:01 10° N 11:24:44 86° WNW 11:28:25 10° SSW
